MDT,Max TemperatureF,Mean TemperatureF,Min TemperatureF,Max Dew PointF,MeanDew PointF,Min DewpointF,Max Humidity, Mean Humidity, Min Humidity, Max Sea Level PressureIn, Mean Sea Level PressureIn, Min Sea Level PressureIn, Max VisibilityMiles, Mean VisibilityMiles, Min VisibilityMiles, Max Wind SpeedMPH, Mean Wind SpeedMPH, Max Gust SpeedMPH,PrecipitationIn, CloudCover, Events, WindDirDegrees
2013-5-1,48,36,24,21,15,9,80,46,20,30.60,30.46,30.25,10,10,10,17,9,22,0.00,1,,331
2013-5-2,57,40,24,21,18,12,69,39,20,30.60,30.50,30.34,10,10,10,10,4,,0.00,1,,116
2013-5-3,66,50,33,27,22,16,56,34,19,30.33,30.20,30.11,10,10,10,14,6,20,0.00,0,,104
2013-5-4,62,48,33,23,21,19,56,33,20,30.31,30.27,30.22,10,10,10,15,8,20,0.00,0,,70
2013-5-5,64,47,30,27,23,18,69,38,22,30.29,30.21,30.10,10,10,9,12,3,18,0.00,0,,146
2013-5-6,71,54,37,32,27,23,65,36,19,30.12,30.04,29.95,10,10,10,13,5,18,0.00,0,,154
2013-5-7,77,59,41,34,28,21,49,30,18,29.96,29.89,29.83,10,10,8,10,6,,0.00,0,,85
2013-5-8,66,52,39,39,36,28,81,53,31,30.19,30.08,29.92,10,10,10,17,11,22,0.00,0,,21
2013-5-9,66,54,42,36,30,25,62,44,27,30.24,30.19,30.12,10,10,10,14,10,17,0.00,0,,64
2013-5-10,64,50,35,45,29,19,81,46,22,30.37,30.21,30.08,10,10,10,28,10,34,0.00,0,,335
2013-5-11,60,45,30,25,22,18,64,40,22,30.45,30.32,30.17,10,10,10,12,7,,0.00,0,,59
2013-5-12,82,60,37,46,33,16,52,34,21,30.17,29.98,29.81,10,10,10,17,7,22,0.00,0,,191
2013-5-13,89,71,53,52,45,41,63,41,24,29.90,29.79,29.56,10,10,10,24,9,30,0.00,0,,271
2013-5-14,71,60,50,54,39,30,88,46,27,29.93,29.84,29.62,10,10,10,37,19,46,0.00,0,,303
2013-5-15,73,62,50,37,33,30,54,34,20,30.00,29.95,29.90,10,10,10,15,9,22,0.00,2,,316
2013-5-16,66,60,53,48,42,30,77,54,38,29.90,29.87,29.85,10,10,10,17,8,22,0.00,3,,90
2013-5-17,69,61,53,52,49,46,82,69,53,29.89,29.85,29.80,10,10,10,15,8,,0.00,5,,61
2013-5-18,73,60,48,55,50,45,94,68,41,29.87,29.83,29.78,10,10,9,18,7,22,0.10,4,Thunderstorm,357
2013-5-19,59,54,50,55,49,43,94,82,59,29.89,29.86,29.82,10,10,3,26,16,37,0.15,7,,17
2013-5-20,55,52,48,48,46,45,93,85,77,30.01,29.92,29.84,10,8,2,31,24,41,0.40,6,,351
2013-5-21,53,48,44,46,42,36,87,75,62,30.05,30.02,29.99,10,10,3,23,11,30,0.01,7,,25
2013-5-22,66,56,46,45,39,30,87,57,26,30.16,30.08,30.04,10,10,10,25,10,30,0.00,2,,76
2013-5-23,69,56,42,45,39,34,76,52,35,30.16,30.07,29.92,10,10,10,32,16,41,0.00,0,,116
2013-5-24,73,62,51,48,43,37,72,55,29,30.01,29.90,29.83,10,10,10,24,15,32,0.00,4,,211
2013-5-25,77,64,50,61,52,43,88,67,36,30.01,29.92,29.82,10,10,8,24,11,32,0.02,3,Thunderstorm,69
2013-5-26,75,64,53,59,54,50,94,70,44,29.99,29.92,29.83,10,10,8,17,9,23,0.05,2,,113
2013-5-27,66,58,51,59,53,48,94,84,68,29.91,29.78,29.70,10,10,3,28,9,40,0.63,4,Thunderstorm,275
2013-5-28,71,60,48,55,51,46,94,75,49,29.72,29.69,29.67,10,10,2,13,7,18,0.10,2,,276
2013-5-29,68,60,53,55,53,48,94,77,64,29.73,29.65,29.57,10,10,7,17,9,23,0.00,4,Thunderstorm,51
2013-5-30,60,55,50,54,51,46,94,89,77,29.61,29.52,29.48,10,9,3,23,15,32,1.22,8,,11
2013-5-31,51,50,48,48,47,43,94,87,76,30.06,29.71,29.49,10,9,3,24,18,32,0.70,8,,347